Simultaneous Nadir Overpasses (SNOs) Predictions

Prediction of SNOs between METOP-B and TERRA Satellite Orbit:

Table of predicted SNOs for the next 14.0 days since TLE Epoch: 5/31/2025
Index Date (METOP-B) Time (METOP-B) Lat,Lon (METOP-B) SZA (METOP-B ) Date (TERRA) Time (TERRA) Lat,Lon (TERRA) SZA (TERRA ) Distance(km) Time Diff (sec)
1 06/02/2025 07:22:17 78.31, 72.62 56.04 06/02/2025 07:22:44 78.30, 72.53 56.03 2.15 27
2 06/02/2025 08:12:48 -78.73,-117.65 123.50 06/02/2025 08:11:55 -78.73,-117.70 123.51 1.12 53
3 06/04/2025 20:13:10 72.82,-137.60 50.79 06/04/2025 20:14:23 72.63,-136.35 50.48 45.98 73
4 06/04/2025 21:01:53 -78.35, 47.89 124.23 06/04/2025 21:01:49 -78.35, 47.94 124.23 1.29 4
5 06/07/2025 09:50:57 -77.99,-146.26 124.87 06/07/2025 09:51:42 -77.99,-146.18 124.87 1.89 45
6 06/07/2025 10:41:25 78.46, 23.58 55.63 06/07/2025 10:40:49 78.47, 23.70 55.64 2.77 36
7 06/09/2025 23:30:27 78.18,-170.23 55.11 06/09/2025 23:30:40 78.18,-170.14 55.12 2.20 13
8 06/10/2025 00:20:57 -78.65, -0.28 124.39 06/10/2025 00:19:50 -78.66, -0.19 124.38 2.19 67
9 06/12/2025 12:19:27 77.92, -3.79 54.67 06/12/2025 12:20:29 77.92, -3.79 54.67 0.17 62



Historial Predications of SNOs between METOP-B and TERRA
